Pittsburgh Allegheny Co., PA

2:44 PM EDT on September 26, 2017 (GMT -0400)
Allegheny County

Weather History for KAGC - November, 2012

Change the Weather History Date:

Sunday, November 25, 2012

  Actual Average Record
Temperature  
Mean Temperature 34 °F -  
Max Temperature 39 °F 50 °F 67 °F (1987)
Min Temperature 28 °F 30 °F 10 °F (2005)
Degree Days  
Heating Degree Days 32    
Moisture  
Dew Point 18 °F    
Average Humidity 57    
Maximum Humidity 72    
Minimum Humidity 39    
Precipitation  
Precipitation 0.01 in - - ()
Sea Level Pressure  
Sea Level Pressure 30.00 in    
Wind  
Wind Speed 9 mph (SW)    
Max Wind Speed 18 mph    
Max Gust Speed 23 mph    
Visibility 9 miles    
Events Snow    
Averages and records for this station are not official NWS values.
T = Trace of Precipitation, MM = Missing Value Source: NWS Daily Summary

Daily Weather History Graph

Daily Weather History Graph

Search for Another Location

Airport or City:

Trip Planner

Search our weather history database for the weather conditions in past years. The results will help you decide how hot, cold, wet, or windy it might be!

Date:

Astronomy

Nov. 25, 2012 Rise Set
Actual Time 7:17 AM EST 4:55 PM EST
Civil Twilight 6:47 AM EST 5:25 PM EST
Nautical Twilight 6:14 AM EST 5:59 PM EST
Astronomical Twilight 5:41 AM EST 6:31 PM EST
Moon 3:12 PM EST (11/25) 4:29 AM EST (11/25)
Length of Visible Light 10h 38m
Length of Day
9h 38m
Waxing Gibbous, 93% of the Moon is Illuminated
Nov 25
Waxing Gibbous
Nov 28
Full
Dec 6
Last Quarter
Dec 13
New
Dec 20
First Quarter

Hourly Weather History & Observations

Time (EST) Temp. Windchill Dew Point Humidity Pressure Visibility Wind Dir Wind Speed Gust Speed Precip Events Conditions
12:22 AM 28.4 °F 23.3 °F 15.8 °F 59% 30.02 in 10.0 mi WNW 4.6 mph - N/A   Overcast
12:53 AM 28.9 °F 22.8 °F 17.1 °F 61% 30.08 in 10.0 mi West 5.8 mph - N/A   Overcast
1:22 AM 28.4 °F 18.5 °F 17.6 °F 64% 30.02 in 10.0 mi West 11.5 mph - N/A   Overcast
1:53 AM 28.9 °F 19.8 °F 17.1 °F 61% 30.07 in 10.0 mi West 10.4 mph 16.1 mph N/A   Overcast
2:53 AM 28.9 °F 19.8 °F 17.1 °F 61% 30.08 in 10.0 mi WSW 10.4 mph - N/A   Overcast
3:53 AM 28.9 °F 16.5 °F 16.0 °F 58% 30.08 in 10.0 mi West 18.4 mph 23.0 mph N/A   Overcast
4:53 AM 28.0 °F 18.6 °F 16.0 °F 61% 30.07 in 10.0 mi WSW 10.4 mph - N/A   Overcast
5:53 AM 28.9 °F 19.2 °F 17.1 °F 61% 30.06 in 10.0 mi WSW 11.5 mph - N/A   Overcast
6:53 AM 28.4 °F 18.0 °F 17.6 °F 64% 30.00 in 10.0 mi WSW 12.7 mph - N/A   Overcast
7:44 AM 28.4 °F 18.0 °F 19.4 °F 69% 30.01 in 1.8 mi WSW 12.7 mph 18.4 mph 0.00 in Snow Light Snow
7:53 AM 28.0 °F 20.0 °F 19.0 °F 69% 30.06 in 4.0 mi SW 8.1 mph - 0.00 in Snow Light Snow
8:22 AM 28.4 °F 19.1 °F 19.4 °F 69% 29.99 in 2.0 mi SW 10.4 mph - 0.00 in Snow Light Snow
8:41 AM 28.4 °F 19.7 °F 19.4 °F 69% 30.00 in 5.0 mi SW 9.2 mph - 0.00 in Snow Light Snow
8:53 AM 28.0 °F 21.7 °F 19.9 °F 72% 30.05 in 10.0 mi SW 5.8 mph - 0.00 in   Mostly Cloudy
9:53 AM 30.0 °F 20.5 °F 19.0 °F 64% 30.04 in 10.0 mi SSW 11.5 mph - N/A   Overcast
10:53 AM 30.9 °F 21.7 °F 18.0 °F 59% 30.01 in 10.0 mi SSW 11.5 mph 20.7 mph N/A   Overcast
11:53 AM 33.1 °F 23.9 °F 18.0 °F 54% 29.97 in 10.0 mi SW 12.7 mph 21.9 mph N/A   Overcast
12:53 PM 36.0 °F 27.1 °F 17.1 °F 46% 29.93 in 10.0 mi SSW 13.8 mph 23.0 mph N/A   Partly Cloudy
1:53 PM 37.9 °F 29.2 °F 16.0 °F 41% 29.91 in 10.0 mi SW 15.0 mph - N/A   Mostly Cloudy
2:53 PM 39.0 °F 31.0 °F 16.0 °F 39% 29.89 in 10.0 mi WSW 13.8 mph 18.4 mph 0.01 in   Clear
3:53 PM 39.0 °F 32.8 °F 17.1 °F 41% 29.90 in 10.0 mi WSW 9.2 mph - N/A   Clear
4:53 PM 37.0 °F 30.4 °F 17.1 °F 44% 29.92 in 10.0 mi SW 9.2 mph - N/A   Clear
5:53 PM 35.1 °F 30.1 °F 17.1 °F 48% 29.93 in 10.0 mi SW 5.8 mph - N/A   Clear
6:53 PM 35.1 °F 30.1 °F 17.1 °F 48% 29.96 in 10.0 mi SW 5.8 mph - N/A   Clear
7:53 PM 34.0 °F 28.8 °F 17.1 °F 50% 29.97 in 10.0 mi South 5.8 mph - N/A   Clear
8:53 PM 33.1 °F 26.1 °F 17.1 °F 52% 29.99 in 10.0 mi South 8.1 mph - N/A   Clear
9:53 PM 33.1 °F 26.9 °F 17.1 °F 52% 29.99 in 10.0 mi South 6.9 mph - N/A   Clear
10:53 PM 32.0 °F 24.8 °F 18.0 °F 56% 30.00 in 10.0 mi SSW 8.1 mph - N/A   Clear
11:53 PM 32.0 °F 25.6 °F 18.0 °F 56% 30.02 in 10.0 mi SW 6.9 mph - N/A   Clear